Weather in Desyatova

Russia / Tyumen Oblast     56°15′18″N   68°54′34″E
temp.,
°C
wind,
m/s
gust,
m/s
humid.,
%
clouds,
%
prec.,
mm/h
press.,
hPa
HPBL,
m
9 may, sun
sun923:00+15se114176 0.0 101611
02:00+14ene2244100 0.0 101612
05:00+13e375096 0.0 1016116
08:00+17e5942100 0.0 1017355
11:00+20e7938100 0.0 10171024
14:00+22e8103331 0.0 10162343
17:00+21ene893293 0.0 10172363
20:00+17ene61141100 0.0 1018598
10 may, mon
mon1023:00+15ene71241100 0.0 1019681
02:00+12ene61245100 0.0 1020580
05:00+10ene61250100 0.0 1022454
08:00+12ene71144100 0.0 1023851
11:00+15ene8103298 0.0 10231466
14:00+18ene782787 0.0 10231830
17:00+18ene67289 0.0 10231917
20:00+13ene33425 0.0 102422
11 may, tue
tue1123:00+10ne22480 0.0 102510
02:00+8nne22540 0.0 102615
05:00+8nne33590 0.0 102726
08:00+14nne35460 0.0 1027473
11:00+18nne45340 0.0 10271569
14:00+20nne45280 0.0 10261756
17:00+21nne34265 0.0 10261946
20:00+16ene0138100 0.0 102611
12 may, wed
wed1223:00+14sw2241100 0.0 102612
02:00+12w2245100 0.0 102619
05:00+11wnw345171 0.0 102652
08:00+17wnw574397 0.0 1025456
11:00+16nnw5764100 0.0 1025785
14:00+18nnw7841100 0.4 10241523
17:00+17n793275 0.4 10241844
20:00+13n374564 0.0 1025134
13 may, thu
thu1323:00+10nne355314 0.0 102676
02:00+8n33525 0.0 102637
05:00+7nnw225617 0.0 102622
08:00+13wnw344573 0.0 1025491
11:00+16wnw34505 0.0 1024713
14:00+19wnw5747100 0.0 10221476
17:00+19wnw3554100 0.0 1022205
20:00+18n51154100 0.0 1022494